User: anonymous   Login
Location: M.A.R.S.Observatory
(35.4031°N, 81.5481°W)
Time: 03:08:20
(UTC-04:00)
Language:

SL-8 R/B - Orbit

View from above orbital plane
View from above orbital plane
View from above satellite
View from above satellite

Ground track
Ground track

The orbit data is extracted from the following two-line orbital elements,

1 33066U 08031G   15186.52949220  .00000106  00000-0  50626-4 0  9994
2 33066 048.4424 203.2053 0007926 340.3680 153.7765 14.69252670377956
Epoch (UTC): 05 July 2015 12:42:28
Eccentricity: 0.0007926
inclination: 48.4424°
perigee height: 658 km
apogee height: 669 km
right ascension of ascending node: 203.2053°
argument of perigee: 340.3680°
revolutions per day: 14.69252670
mean anomaly at epoch: 153.7765°
orbit number at epoch: 37795

The dashed part of the orbit path shows where the satellite is in the earth's shadow,  

DLR